Wetterdaten: Dienstag, 27.08.2013
Datum Zeit Temperatur Luftfeuchte Luftdruck Regen Wind Richtung Richtung Taupunkt Windchill Windben
27.08.2013 00:00 8,0 C 90 % 1016,3 hPa 0,0 l/m 0,0 km/h (0 Bft) W-SW 247 6,5 C 8,0 C 0,0 km/h (0 Bft)
27.08.2013 00:05 8,7 C 90 % 1016,3 hPa 0,0 l/m 0,2 km/h (0 Bft) O-NO 67 7,2 C 8,0 C 3,1 km/h (1 Bft)
27.08.2013 00:10 9,2 C 91 % 1016,3 hPa 0,0 l/m 0,8 km/h (0 Bft) O-SO 112 7,8 C 8,4 C 0,0 km/h (0 Bft)
27.08.2013 00:15 8,8 C 91 % 1016,3 hPa 0,0 l/m 0,8 km/h (0 Bft) SO 135 7,4 C 8,5 C 0,0 km/h (0 Bft)
27.08.2013 00:20 8,3 C 91 % 1016,1 hPa 0,0 l/m 0,2 km/h (0 Bft) O-SO 112 6,9 C 8,4 C 0,0 km/h (0 Bft)
27.08.2013 00:25 8,2 C 91 % 1016,1 hPa 0,0 l/m 0,0 km/h (0 Bft) O-SO 112 6,8 C 8,1 C 0,0 km/h (0 Bft)
27.08.2013 00:30 8,0 C 91 % 1016,1 hPa 0,0 l/m 0,0 km/h (0 Bft) O-SO 112 6,6 C 7,8 C 0,0 km/h (0 Bft)
27.08.2013 00:35 9,0 C 92 % 1016,1 hPa 0,0 l/m 0,6 km/h (0 Bft) NO 45 7,8 C 8,1 C 1,9 km/h (1 Bft)
27.08.2013 00:40 9,3 C 92 % 1016,1 hPa 0,0 l/m 1,0 km/h (0 Bft) NO 45 8,1 C 8,5 C 0,0 km/h (0 Bft)
27.08.2013 00:45 8,9 C 92 % 1016,1 hPa 0,0 l/m 0,5 km/h (0 Bft) W 270 7,7 C 8,8 C 0,0 km/h (0 Bft)
27.08.2013 00:50 8,8 C 92 % 1016,1 hPa 0,0 l/m 0,0 km/h (0 Bft) S 180 7,6 C 8,7 C 0,0 km/h (0 Bft)
27.08.2013 00:55 9,0 C 92 % 1016,1 hPa 0,0 l/m 0,0 km/h (0 Bft) NW 315 7,8 C 8,8 C 0,0 km/h (0 Bft)
27.08.2013 01:00 9,6 C 92 % 1015,9 hPa 0,0 l/m 0,6 km/h (0 Bft) O-SO 112 8,4 C 9,0 C 3,9 km/h (1 Bft)
27.08.2013 01:05 10,2 C 92 % 1015,9 hPa 0,0 l/m 2,4 km/h (1 Bft) O 90 9,0 C 9,9 C 4,7 km/h (1 Bft)
27.08.2013 01:10 10,0 C 92 % 1015,9 hPa 0,0 l/m 3,1 km/h (1 Bft) O-SO 112 8,8 C 10,0 C 0,0 km/h (0 Bft)
27.08.2013 01:15 9,7 C 93 % 1015,9 hPa 0,0 l/m 1,8 km/h (1 Bft) O-SO 112 8,6 C 10,0 C 0,0 km/h (0 Bft)
27.08.2013 01:20 9,5 C 93 % 1015,9 hPa 0,0 l/m 0,6 km/h (0 Bft) O 90 8,4 C 9,7 C 0,0 km/h (0 Bft)
27.08.2013 01:25 9,1 C 92 % 1015,9 hPa 0,0 l/m 0,2 km/h (0 Bft) O-SO 112 7,9 C 9,4 C 2,6 km/h (1 Bft)
27.08.2013 01:30 8,9 C 92 % 1015,9 hPa 0,0 l/m 0,3 km/h (0 Bft) NO 45 7,7 C 9,1 C 0,0 km/h (0 Bft)
27.08.2013 01:35 9,2 C 92 % 1015,9 hPa 0,0 l/m 0,5 km/h (0 Bft) N-NO 22 8,0 C 8,7 C 0,0 km/h (0 Bft)
27.08.2013 01:40 8,7 C 92 % 1015,8 hPa 0,0 l/m 0,2 km/h (0 Bft) W-NW 292 7,5 C 8,6 C 0,0 km/h (0 Bft)
27.08.2013 01:45 8,6 C 92 % 1015,8 hPa 0,0 l/m 0,0 km/h (0 Bft) W-NW 292 7,4 C 8,2 C 0,0 km/h (0 Bft)
27.08.2013 01:50 8,2 C 92 % 1015,8 hPa 0,0 l/m 0,0 km/h (0 Bft) O 90 7,0 C 8,0 C 0,0 km/h (0 Bft)
27.08.2013 01:55 8,7 C 92 % 1015,8 hPa 0,0 l/m 1,1 km/h (1 Bft) O 90 7,5 C 8,0 C 1,8 km/h (1 Bft)
27.08.2013 02:00 8,7 C 92 % 1015,9 hPa 0,0 l/m 1,4 km/h (1 Bft) O-SO 112 7,5 C 8,2 C 0,0 km/h (0 Bft)
27.08.2013 02:05 8,6 C 92 % 1015,9 hPa 0,0 l/m 0,6 km/h (0 Bft) N-NO 22 7,4 C 8,0 C 0,0 km/h (0 Bft)
27.08.2013 02:10 7,9 C 92 % 1015,9 hPa 0,0 l/m 0,3 km/h (0 Bft) W-SW 247 6,7 C 7,9 C 0,0 km/h (0 Bft)
27.08.2013 02:15 7,6 C 92 % 1015,9 hPa 0,0 l/m 0,2 km/h (0 Bft) S 180 6,4 C 7,5 C 0,0 km/h (0 Bft)
27.08.2013 02:20 7,6 C 92 % 1015,7 hPa 0,0 l/m 0,0 km/h (0 Bft) W-NW 292 6,4 C 7,5 C 2,3 km/h (1 Bft)
27.08.2013 02:25 7,4 C 92 % 1015,7 hPa 0,0 l/m 0,3 km/h (0 Bft) W-NW 292 6,2 C 7,3 C 0,0 km/h (0 Bft)
27.08.2013 02:30 7,4 C 92 % 1015,7 hPa 0,0 l/m 0,3 km/h (0 Bft) W-NW 292 6,2 C 7,2 C 0,0 km/h (0 Bft)
27.08.2013 02:35 7,4 C 92 % 1015,7 hPa 0,0 l/m 0,0 km/h (0 Bft) W-NW 292 6,2 C 7,1 C 0,0 km/h (0 Bft)
27.08.2013 02:40 7,5 C 92 % 1015,7 hPa 0,0 l/m 0,0 km/h (0 Bft) N-NO 22 6,3 C 7,1 C 0,0 km/h (0 Bft)
27.08.2013 02:45 7,4 C 92 % 1015,7 hPa 0,0 l/m 0,0 km/h (0 Bft) N 360 6,2 C 7,1 C 0,0 km/h (0 Bft)
27.08.2013 02:50 7,4 C 92 % 1015,7 hPa 0,0 l/m 0,0 km/h (0 Bft) N-NO 22 6,2 C 7,3 C 0,0 km/h (0 Bft)
27.08.2013 02:55 7,4 C 92 % 1015,7 hPa 0,0 l/m 0,0 km/h (0 Bft) N-NO 22 6,2 C 7,3 C 0,0 km/h (0 Bft)
27.08.2013 03:00 7,2 C 92 % 1015,8 hPa 0,0 l/m 0,0 km/h (0 Bft) N-NO 22 6,0 C 7,2 C 0,0 km/h (0 Bft)
27.08.2013 03:05 7,4 C 92 % 1015,8 hPa 0,0 l/m 0,0 km/h (0 Bft) NO 45 6,2 C 7,1 C 0,0 km/h (0 Bft)
27.08.2013 03:10 7,2 C 92 % 1015,8 hPa 0,0 l/m 0,0 km/h (0 Bft) NO 45 6,0 C 7,0 C 0,0 km/h (0 Bft)
27.08.2013 03:15 7,7 C 92 % 1015,8 hPa 0,0 l/m 0,0 km/h (0 Bft) NO 45 6,5 C 7,0 C 0,0 km/h (0 Bft)
27.08.2013 03:20 7,1 C 92 % 1015,5 hPa 0,0 l/m 0,0 km/h (0 Bft) S 180 5,9 C 6,9 C 0,0 km/h (0 Bft)
27.08.2013 03:25 7,2 C 92 % 1015,5 hPa 0,0 l/m 0,0 km/h (0 Bft) NO 45 6,0 C 6,8 C 0,0 km/h (0 Bft)
27.08.2013 03:30 6,7 C 92 % 1015,5 hPa 0,0 l/m 0,0 km/h (0 Bft) O-SO 112 5,5 C 6,6 C 0,0 km/h (0 Bft)
27.08.2013 03:35 7,2 C 92 % 1015,5 hPa 0,0 l/m 0,0 km/h (0 Bft) O-SO 112 6,0 C 6,6 C 0,0 km/h (0 Bft)
27.08.2013 03:40 7,1 C 92 % 1015,5 hPa 0,0 l/m 0,0 km/h (0 Bft) O-SO 112 5,9 C 6,7 C 0,0 km/h (0 Bft)
27.08.2013 03:45 7,9 C 93 % 1015,5 hPa 0,0 l/m 0,6 km/h (0 Bft) O-NO 67 6,8 C 6,9 C 3,1 km/h (1 Bft)
27.08.2013 03:50 8,1 C 93 % 1015,5 hPa 0,0 l/m 1,6 km/h (1 Bft) O-SO 112 7,0 C 7,4 C 2,6 km/h (1 Bft)
27.08.2013 03:55 7,7 C 93 % 1015,5 hPa 0,0 l/m 1,8 km/h (1 Bft) S-SW 202 6,6 C 7,6 C 0,0 km/h (0 Bft)
27.08.2013 04:00 7,2 C 93 % 1015,4 hPa 0,0 l/m 1,0 km/h (0 Bft) SO 135 6,1 C 7,4 C 0,0 km/h (0 Bft)
27.08.2013 04:05 6,7 C 93 % 1015,4 hPa 0,0 l/m 0,0 km/h (0 Bft) O 90 5,6 C 7,0 C 0,0 km/h (0 Bft)
27.08.2013 04:10 7,0 C 93 % 1015,4 hPa 0,0 l/m 0,0 km/h (0 Bft) O-SO 112 5,9 C 6,7 C 0,0 km/h (0 Bft)
27.08.2013 04:15 6,7 C 93 % 1015,4 hPa 0,0 l/m 0,0 km/h (0 Bft) O-NO 67 5,6 C 6,6 C 0,0 km/h (0 Bft)
27.08.2013 04:20 6,6 C 93 % 1015,3 hPa 0,0 l/m 0,0 km/h (0 Bft) O-NO 67 5,6 C 6,5 C 0,0 km/h (0 Bft)
27.08.2013 04:25 6,6 C 93 % 1015,3 hPa 0,0 l/m 0,0 km/h (0 Bft) O 90 5,6 C 6,5 C 0,0 km/h (0 Bft)
27.08.2013 04:30 6,5 C 93 % 1015,3 hPa 0,0 l/m 0,0 km/h (0 Bft) N-NO 22 5,5 C 6,4 C 0,0 km/h (0 Bft)
27.08.2013 04:35 6,4 C 93 % 1015,3 hPa 0,0 l/m 0,0 km/h (0 Bft) N 360 5,4 C 6,4 C 0,0 km/h (0 Bft)
27.08.2013 04:40 6,4 C 93 % 1015,2 hPa 0,0 l/m 0,0 km/h (0 Bft) N 360 5,4 C 6,4 C 0,0 km/h (0 Bft)
27.08.2013 04:45 6,4 C 93 % 1015,2 hPa 0,0 l/m 0,0 km/h (0 Bft) N 360 5,4 C 6,3 C 0,0 km/h (0 Bft)
27.08.2013 04:50 6,6 C 93 % 1015,2 hPa 0,0 l/m 0,0 km/h (0 Bft) N-NO 22 5,6 C 6,3 C 1,6 km/h (1 Bft)
27.08.2013 04:55 6,8 C 93 % 1015,2 hPa 0,0 l/m 0,0 km/h (0 Bft) N-NO 22 5,7 C 6,6 C 0,0 km/h (0 Bft)
27.08.2013 05:00 6,9 C 93 % 1015,2 hPa 0,0 l/m 0,0 km/h (0 Bft) N-NO 22 5,8 C 6,6 C 0,0 km/h (0 Bft)
27.08.2013 05:05 6,7 C 93 % 1015,2 hPa 0,0 l/m 0,0 km/h (0 Bft) N-NO 22 5,6 C 6,5 C 0,0 km/h (0 Bft)
27.08.2013 05:10 6,4 C 93 % 1015,2 hPa 0,0 l/m 0,0 km/h (0 Bft) N-NO 22 5,4 C 6,4 C 0,0 km/h (0 Bft)
27.08.2013 05:15 6,3 C 93 % 1015,2 hPa 0,0 l/m 0,0 km/h (0 Bft) N-NO 22 5,3 C 6,2 C 0,0 km/h (0 Bft)
27.08.2013 05:20 6,3 C 93 % 1015,6 hPa 0,0 l/m 0,0 km/h (0 Bft) N-NO 22 5,3 C 6,0 C 0,0 km/h (0 Bft)
27.08.2013 05:25 6,5 C 93 % 1015,6 hPa 0,0 l/m 0,0 km/h (0 Bft) N 360 5,5 C 6,1 C 0,0 km/h (0 Bft)
27.08.2013 05:30 6,4 C 93 % 1015,6 hPa 0,0 l/m 0,0 km/h (0 Bft) NO 45 5,4 C 6,1 C 0,0 km/h (0 Bft)
27.08.2013 05:35 6,3 C 93 % 1015,6 hPa 0,0 l/m 0,0 km/h (0 Bft) N 360 5,3 C 6,1 C 0,0 km/h (0 Bft)
27.08.2013 05:40 6,3 C 93 % 1015,4 hPa 0,0 l/m 0,0 km/h (0 Bft) N 360 5,3 C 6,0 C 0,0 km/h (0 Bft)
27.08.2013 05:45 6,8 C 93 % 1015,4 hPa 0,0 l/m 0,2 km/h (0 Bft) O 90 5,7 C 6,2 C 2,6 km/h (1 Bft)
27.08.2013 05:50 7,3 C 93 % 1015,4 hPa 0,0 l/m 1,1 km/h (1 Bft) O 90 6,2 C 6,6 C 2,3 km/h (1 Bft)
27.08.2013 05:55 7,0 C 93 % 1015,4 hPa 0,0 l/m 1,3 km/h (1 Bft) SO 135 5,9 C 6,9 C 0,0 km/h (0 Bft)
27.08.2013 06:00 6,4 C 93 % 1015,4 hPa 0,0 l/m 0,3 km/h (0 Bft) SO 135 5,4 C 6,7 C 0,0 km/h (0 Bft)
27.08.2013 06:05 6,6 C 93 % 1015,4 hPa 0,0 l/m 0,0 km/h (0 Bft) O-SO 112 5,6 C 6,4 C 0,0 km/h (0 Bft)
27.08.2013 06:10 6,2 C 93 % 1015,4 hPa 0,0 l/m 0,0 km/h (0 Bft) N-NO 22 5,2 C 6,1 C 0,0 km/h (0 Bft)
27.08.2013 06:15 6,1 C 93 % 1015,4 hPa 0,0 l/m 0,0 km/h (0 Bft) N-NO 22 5,1 C 6,0 C 0,0 km/h (0 Bft)
27.08.2013 06:20 6,2 C 93 % 1015,4 hPa 0,0 l/m 0,0 km/h (0 Bft) N-NO 22 5,2 C 6,0 C 0,0 km/h (0 Bft)
27.08.2013 06:25 6,2 C 93 % 1015,4 hPa 0,0 l/m 0,0 km/h (0 Bft) N-NO 22 5,2 C 6,0 C 0,0 km/h (0 Bft)
27.08.2013 06:30 6,5 C 93 % 1015,4 hPa 0,0 l/m 0,0 km/h (0 Bft) O-SO 112 5,5 C 6,0 C 0,0 km/h (0 Bft)
27.08.2013 06:35 6,8 C 93 % 1015,4 hPa 0,0 l/m 0,2 km/h (0 Bft) NO 45 5,7 C 6,4 C 0,0 km/h (0 Bft)
27.08.2013 06:40 6,8 C 93 % 1015,4 hPa 0,0 l/m 0,2 km/h (0 Bft) NO 45 5,7 C 6,5 C 0,0 km/h (0 Bft)
27.08.2013 06:45 6,9 C 93 % 1015,4 hPa 0,0 l/m 0,0 km/h (0 Bft) NO 45 5,8 C 6,6 C 0,0 km/h (0 Bft)
27.08.2013 06:50 7,1 C 93 % 1015,4 hPa 0,0 l/m 0,0 km/h (0 Bft) NO 45 6,0 C 6,7 C 0,0 km/h (0 Bft)
27.08.2013 06:55 7,4 C 93 % 1015,4 hPa 0,0 l/m 0,2 km/h (0 Bft) SO 135 6,3 C 7,1 C 1,8 km/h (1 Bft)
27.08.2013 07:00 7,4 C 93 % 1015,2 hPa 0,0 l/m 0,3 km/h (0 Bft) N 360 6,3 C 7,4 C 0,0 km/h (0 Bft)
27.08.2013 07:05 7,5 C 93 % 1015,2 hPa 0,0 l/m 0,3 km/h (0 Bft) N-NW 337 6,4 C 7,6 C 0,0 km/h (0 Bft)
27.08.2013 07:10 7,8 C 93 % 1015,2 hPa 0,0 l/m 0,0 km/h (0 Bft) NW 315 6,7 C 7,8 C 0,0 km/h (0 Bft)
27.08.2013 07:15 7,8 C 93 % 1015,2 hPa 0,0 l/m 0,0 km/h (0 Bft) NW 315 6,7 C 7,9 C 0,0 km/h (0 Bft)
27.08.2013 07:20 8,0 C 93 % 1015,3 hPa 0,0 l/m 0,0 km/h (0 Bft) NW 315 6,9 C 8,1 C 0,0 km/h (0 Bft)
27.08.2013 07:25 8,2 C 93 % 1015,3 hPa 0,0 l/m 0,0 km/h (0 Bft) N 360 7,1 C 8,3 C 0,0 km/h (0 Bft)
27.08.2013 07:30 8,5 C 93 % 1015,3 hPa 0,0 l/m 0,0 km/h (0 Bft) NW 315 7,4 C 8,4 C 0,0 km/h (0 Bft)
27.08.2013 07:35 8,6 C 93 % 1015,3 hPa 0,0 l/m 0,0 km/h (0 Bft) NW 315 7,5 C 8,7 C 0,0 km/h (0 Bft)
27.08.2013 07:40 8,8 C 93 % 1015,4 hPa 0,0 l/m 0,0 km/h (0 Bft) N 360 7,7 C 8,8 C 0,0 km/h (0 Bft)
27.08.2013 07:45 9,1 C 93 % 1015,4 hPa 0,0 l/m 0,0 km/h (0 Bft) N 360 8,0 C 9,2 C 0,0 km/h (0 Bft)
27.08.2013 07:50 9,2 C 93 % 1015,4 hPa 0,0 l/m 0,0 km/h (0 Bft) NW 315 8,1 C 9,3 C 0,0 km/h (0 Bft)
27.08.2013 07:55 9,5 C 93 % 1015,4 hPa 0,0 l/m 0,0 km/h (0 Bft) NW 315 8,4 C 9,6 C 0,0 km/h (0 Bft)
27.08.2013 08:00 9,6 C 93 % 1015,4 hPa 0,0 l/m 0,0 km/h (0 Bft) O 90 8,5 C 9,9 C 0,0 km/h (0 Bft)
27.08.2013 08:05 10,0 C 93 % 1015,4 hPa 0,0 l/m 0,0 km/h (0 Bft) S 180 8,9 C 10,2 C 0,0 km/h (0 Bft)
27.08.2013 08:10 10,2 C 93 % 1015,4 hPa 0,0 l/m 0,0 km/h (0 Bft) N-NO 22 9,1 C 10,4 C 0,0 km/h (0 Bft)
27.08.2013 08:15 10,7 C 93 % 1015,4 hPa 0,0 l/m 0,0 km/h (0 Bft) N 360 9,6 C 11,0 C 0,0 km/h (0 Bft)
27.08.2013 08:20 10,6 C 93 % 1015,4 hPa 0,0 l/m 0,0 km/h (0 Bft) N 360 9,5 C 11,2 C 0,0 km/h (0 Bft)
27.08.2013 08:25 10,9 C 93 % 1015,4 hPa 0,0 l/m 0,0 km/h (0 Bft) NO 45 9,8 C 11,5 C 0,0 km/h (0 Bft)
27.08.2013 08:30 11,0 C 93 % 1015,4 hPa 0,0 l/m 0,0 km/h (0 Bft) W 270 9,9 C 11,6 C 0,0 km/h (0 Bft)
27.08.2013 08:35 11,2 C 93 % 1015,4 hPa 0,0 l/m 0,0 km/h (0 Bft) NO 45 10,1 C 11,9 C 0,0 km/h (0 Bft)
27.08.2013 08:40 11,4 C 93 % 1015,5 hPa 0,0 l/m 0,0 km/h (0 Bft) W-SW 247 10,3 C 12,1 C 0,0 km/h (0 Bft)
27.08.2013 08:45 12,0 C 93 % 1015,5 hPa 0,0 l/m 0,5 km/h (0 Bft) S 180 10,9 C 12,4 C 2,1 km/h (1 Bft)
27.08.2013 08:50 12,3 C 93 % 1015,5 hPa 0,0 l/m 1,3 km/h (1 Bft) S-SO 157 11,2 C 12,9 C 5,1 km/h (1 Bft)
27.08.2013 08:55 12,9 C 92 % 1015,5 hPa 0,0 l/m 1,9 km/h (1 Bft) S 180 11,6 C 13,1 C 2,7 km/h (1 Bft)
27.08.2013 09:00 14,2 C 90 % 1015,5 hPa 0,0 l/m 1,9 km/h (1 Bft) O-NO 67 12,6 C 14,0 C 2,7 km/h (1 Bft)
27.08.2013 09:05 16,2 C 87 % 1015,5 hPa 0,0 l/m 2,3 km/h (1 Bft) W-SW 247 14,0 C 15,4 C 3,5 km/h (1 Bft)
27.08.2013 09:10 15,5 C 84 % 1015,5 hPa 0,0 l/m 2,6 km/h (1 Bft) S-SW 202 12,8 C 16,3 C 3,4 km/h (1 Bft)
27.08.2013 09:15 16,1 C 79 % 1015,5 hPa 0,0 l/m 2,6 km/h (1 Bft) W-NW 292 12,5 C 17,1 C 1,8 km/h (1 Bft)
27.08.2013 09:20 14,2 C 80 % 1015,9 hPa 0,0 l/m 2,4 km/h (1 Bft) W-SW 247 10,8 C 16,6 C 1,6 km/h (1 Bft)
27.08.2013 09:25 14,9 C 82 % 1015,9 hPa 0,0 l/m 1,0 km/h (0 Bft) W-NW 292 11,9 C 15,9 C 0,0 km/h (0 Bft)
27.08.2013 09:30 15,1 C 79 % 1015,9 hPa 0,0 l/m 0,5 km/h (0 Bft) N-NW 337 11,5 C 16,2 C 0,0 km/h (0 Bft)
27.08.2013 09:35 15,4 C 79 % 1015,9 hPa 0,0 l/m 1,3 km/h (1 Bft) W-NW 292 11,8 C 16,1 C 3,4 km/h (1 Bft)
27.08.2013 09:40 17,0 C 75 % 1015,9 hPa 0,0 l/m 1,4 km/h (1 Bft) W 270 12,5 C 16,7 C 3,9 km/h (1 Bft)
27.08.2013 09:45 16,7 C 70 % 1015,9 hPa 0,0 l/m 1,6 km/h (1 Bft) W-NW 292 11,2 C 18,5 C 0,0 km/h (0 Bft)
27.08.2013 09:50 15,6 C 73 % 1015,9 hPa 0,0 l/m 2,4 km/h (1 Bft) W-NW 292 10,8 C 18,5 C 5,1 km/h (1 Bft)
27.08.2013 09:55 16,7 C 72 % 1015,9 hPa 0,0 l/m 2,3 km/h (1 Bft) S-SW 202 11,6 C 17,5 C 5,3 km/h (1 Bft)
27.08.2013 10:00 18,0 C 69 % 1016,2 hPa 0,0 l/m 1,9 km/h (1 Bft) W-NW 292 12,2 C 19,3 C 3,9 km/h (1 Bft)
27.08.2013 10:05 16,3 C 70 % 1016,2 hPa 0,0 l/m 1,4 km/h (1 Bft) N-NW 337 10,8 C 19,2 C 0,0 km/h (0 Bft)
27.08.2013 10:10 16,0 C 70 % 1016,2 hPa 0,0 l/m 1,3 km/h (1 Bft) N-NW 337 10,5 C 18,8 C 0,0 km/h (0 Bft)
27.08.2013 10:15 15,5 C 70 % 1016,2 hPa 0,0 l/m 1,4 km/h (1 Bft) W-NW 292 10,1 C 18,3 C 6,1 km/h (2 Bft)
27.08.2013 10:20 15,7 C 71 % 1016,7 hPa 0,0 l/m 1,8 km/h (1 Bft) N-NW 337 10,5 C 18,0 C 3,5 km/h (1 Bft)
27.08.2013 10:25 15,5 C 71 % 1016,7 hPa 0,0 l/m 1,8 km/h (1 Bft) NW 315 10,3 C 17,9 C 0,0 km/h (0 Bft)
27.08.2013 10:30 16,0 C 72 % 1016,7 hPa 0,0 l/m 1,6 km/h (1 Bft) W-SW 247 11,0 C 17,8 C 2,4 km/h (1 Bft)
27.08.2013 10:35 15,7 C 72 % 1016,7 hPa 0,0 l/m 2,1 km/h (1 Bft) W-NW 292 10,7 C 17,4 C 3,2 km/h (1 Bft)
27.08.2013 10:40 15,3 C 72 % 1016,5 hPa 0,0 l/m 2,6 km/h (1 Bft) W 270 10,3 C 17,2 C 4,0 km/h (1 Bft)
27.08.2013 10:45 15,6 C 71 % 1016,5 hPa 0,0 l/m 2,3 km/h (1 Bft) W 270 10,4 C 17,1 C 1,9 km/h (1 Bft)
27.08.2013 10:50 15,7 C 71 % 1016,5 hPa 0,0 l/m 2,1 km/h (1 Bft) S-SO 157 10,5 C 17,3 C 0,0 km/h (0 Bft)
27.08.2013 10:55 15,9 C 70 % 1016,5 hPa 0,0 l/m 2,6 km/h (1 Bft) W 270 10,4 C 17,5 C 7,6 km/h (2 Bft)
27.08.2013 11:00 16,0 C 69 % 1016,4 hPa 0,0 l/m 3,4 km/h (1 Bft) N-NO 22 10,3 C 17,5 C 6,0 km/h (2 Bft)
27.08.2013 11:05 16,5 C 68 % 1016,4 hPa 0,0 l/m 3,7 km/h (1 Bft) N-NO 22 10,6 C 17,7 C 3,5 km/h (1 Bft)
27.08.2013 11:10 16,5 C 69 % 1016,4 hPa 0,0 l/m 3,7 km/h (1 Bft) N-NW 337 10,8 C 17,9 C 6,4 km/h (2 Bft)
27.08.2013 11:15 16,3 C 67 % 1016,4 hPa 0,0 l/m 4,0 km/h (1 Bft) N-NW 337 10,2 C 18,1 C 6,8 km/h (2 Bft)
27.08.2013 11:20 16,3 C 68 % 1016,6 hPa 0,0 l/m 4,3 km/h (1 Bft) N-NW 337 10,4 C 18,0 C 7,9 km/h (2 Bft)
27.08.2013 11:25 16,7 C 69 % 1016,6 hPa 0,0 l/m 4,8 km/h (1 Bft) W-NW 292 11,0 C 17,8 C 8,5 km/h (2 Bft)
27.08.2013 11:30 16,7 C 68 % 1016,6 hPa 0,0 l/m 5,0 km/h (1 Bft) NW 315 10,8 C 17,7 C 4,2 km/h (1 Bft)
27.08.2013 11:35 17,1 C 65 % 1016,6 hPa 0,0 l/m 5,0 km/h (1 Bft) N-NW 337 10,5 C 18,1 C 6,0 km/h (2 Bft)
27.08.2013 11:40 17,6 C 66 % 1016,5 hPa 0,0 l/m 4,5 km/h (1 Bft) W 270 11,2 C 18,4 C 4,8 km/h (1 Bft)
27.08.2013 11:45 18,2 C 62 % 1016,5 hPa 0,0 l/m 4,0 km/h (1 Bft) NW 315 10,8 C 19,3 C 5,1 km/h (1 Bft)
27.08.2013 11:50 18,2 C 61 % 1016,5 hPa 0,0 l/m 3,9 km/h (1 Bft) O-NO 67 10,6 C 19,7 C 6,9 km/h (2 Bft)
27.08.2013 11:55 18,2 C 60 % 1016,5 hPa 0,0 l/m 4,3 km/h (1 Bft) W 270 10,3 C 20,2 C 1,9 km/h (1 Bft)
27.08.2013 12:00 18,6 C 59 % 1016,6 hPa 0,0 l/m 5,1 km/h (1 Bft) O-SO 112 10,4 C 20,4 C 9,5 km/h (2 Bft)
27.08.2013 12:05 18,6 C 61 % 1016,6 hPa 0,0 l/m 4,3 km/h (1 Bft) N-NW 337 10,9 C 20,6 C 4,3 km/h (1 Bft)
27.08.2013 12:10 18,2 C 62 % 1016,6 hPa 0,0 l/m 3,5 km/h (1 Bft) O-SO 112 10,8 C 20,7 C 2,6 km/h (1 Bft)
27.08.2013 12:15 17,5 C 62 % 1016,6 hPa 0,0 l/m 3,5 km/h (1 Bft) N 360 10,1 C 20,7 C 12,6 km/h (3 Bft)
27.08.2013 12:20 17,2 C 65 % 1016,5 hPa 0,0 l/m 4,0 km/h (1 Bft) N 360 10,6 C 20,2 C 7,2 km/h (2 Bft)
27.08.2013 12:25 17,0 C 65 % 1016,5 hPa 0,0 l/m 5,0 km/h (1 Bft) W-NW 292 10,4 C 19,4 C 8,7 km/h (2 Bft)
27.08.2013 12:30 17,4 C 65 % 1016,5 hPa 0,0 l/m 4,8 km/h (1 Bft) W-NW 292 10,8 C 19,0 C 6,6 km/h (2 Bft)
27.08.2013 12:35 18,2 C 65 % 1016,5 hPa 0,0 l/m 4,2 km/h (1 Bft) W 270 11,5 C 19,1 C 4,0 km/h (1 Bft)
27.08.2013 12:40 18,1 C 59 % 1016,6 hPa 0,0 l/m 3,5 km/h (1 Bft) O-SO 112 10,0 C 19,9 C 4,7 km/h (1 Bft)
27.08.2013 12:45 18,0 C 61 % 1016,6 hPa 0,0 l/m 3,2 km/h (1 Bft) W-SW 247 10,4 C 20,3 C 5,5 km/h (1 Bft)
27.08.2013 12:50 18,4 C 60 % 1016,6 hPa 0,0 l/m 3,9 km/h (1 Bft) W-NW 292 10,5 C 20,2 C 3,7 km/h (1 Bft)
27.08.2013 12:55 18,1 C 61 % 1016,6 hPa 0,0 l/m 3,9 km/h (1 Bft) N 360 10,5 C 20,2 C 3,2 km/h (1 Bft)
27.08.2013 13:00 17,7 C 61 % 1016,6 hPa 0,0 l/m 3,7 km/h (1 Bft) N 360 10,1 C 20,2 C 6,8 km/h (2 Bft)
27.08.2013 13:05 18,7 C 62 % 1016,6 hPa 0,0 l/m 2,9 km/h (1 Bft) W-NW 292 11,3 C 20,6 C 2,3 km/h (1 Bft)
27.08.2013 13:10 19,0 C 58 % 1016,6 hPa 0,0 l/m 2,1 km/h (1 Bft) N-NW 337 10,5 C 21,6 C 4,0 km/h (1 Bft)
27.08.2013 13:15 18,8 C 58 % 1016,6 hPa 0,0 l/m 3,9 km/h (1 Bft) N 360 10,4 C 21,8 C 8,0 km/h (2 Bft)
27.08.2013 13:20 18,9 C 58 % 1016,7 hPa 0,0 l/m 4,7 km/h (1 Bft) N 360 10,5 C 21,8 C 6,8 km/h (2 Bft)
27.08.2013 13:25 19,1 C 59 % 1016,7 hPa 0,0 l/m 5,1 km/h (1 Bft) NW 315 10,9 C 21,8 C 4,7 km/h (1 Bft)
27.08.2013 13:30 19,6 C 56 % 1016,7 hPa 0,0 l/m 4,8 km/h (1 Bft) N 360 10,6 C 22,0 C 5,6 km/h (1 Bft)
27.08.2013 13:35 19,3 C 58 % 1016,7 hPa 0,0 l/m 4,5 km/h (1 Bft) NW 315 10,8 C 22,1 C 6,4 km/h (2 Bft)
27.08.2013 13:40 18,6 C 59 % 1016,7 hPa 0,0 l/m 4,8 km/h (1 Bft) W-NW 292 10,4 C 21,4 C 4,7 km/h (1 Bft)
27.08.2013 13:45 18,4 C 57 % 1016,7 hPa 0,0 l/m 4,5 km/h (1 Bft) N-NW 337 9,7 C 21,1 C 6,8 km/h (2 Bft)
27.08.2013 13:50 17,7 C 60 % 1016,7 hPa 0,0 l/m 4,2 km/h (1 Bft) N 360 9,8 C 20,8 C 6,1 km/h (2 Bft)
27.08.2013 13:55 17,5 C 62 % 1016,7 hPa 0,0 l/m 3,7 km/h (1 Bft) N-NW 337 10,1 C 20,0 C 8,7 km/h (2 Bft)
27.08.2013 14:00 17,2 C 63 % 1016,7 hPa 0,0 l/m 3,9 km/h (1 Bft) W-NW 292 10,1 C 19,5 C 9,3 km/h (2 Bft)
27.08.2013 14:05 17,1 C 63 % 1016,7 hPa 0,0 l/m 3,7 km/h (1 Bft) W-NW 292 10,0 C 18,9 C 4,7 km/h (1 Bft)
27.08.2013 14:10 16,9 C 64 % 1016,7 hPa 0,0 l/m 3,7 km/h (1 Bft) W-SW 247 10,0 C 18,5 C 4,3 km/h (1 Bft)
27.08.2013 14:15 16,9 C 66 % 1016,7 hPa 0,0 l/m 4,0 km/h (1 Bft) W-SW 247 10,5 C 18,0 C 4,8 km/h (1 Bft)
27.08.2013 14:20 16,8 C 67 % 1016,1 hPa 0,0 l/m 4,0 km/h (1 Bft) N-NO 22 10,6 C 17,6 C 2,6 km/h (1 Bft)
27.08.2013 14:25 16,5 C 70 % 1016,1 hPa 0,0 l/m 4,2 km/h (1 Bft) W-SW 247 11,0 C 17,2 C 6,1 km/h (2 Bft)
27.08.2013 14:30 16,3 C 70 % 1016,1 hPa 0,0 l/m 4,0 km/h (1 Bft) W-NW 292 10,8 C 17,0 C 4,2 km/h (1 Bft)
27.08.2013 14:35 16,2 C 70 % 1016,1 hPa 0,0 l/m 4,0 km/h (1 Bft) W-NW 292 10,7 C 16,9 C 5,0 km/h (1 Bft)
27.08.2013 14:40 16,3 C 70 % 1015,9 hPa 0,0 l/m 3,7 km/h (1 Bft) W-NW 292 10,8 C 16,7 C 3,7 km/h (1 Bft)
27.08.2013 14:45 16,5 C 71 % 1015,9 hPa 0,0 l/m 3,1 km/h (1 Bft) W-NW 292 11,2 C 16,8 C 4,2 km/h (1 Bft)
27.08.2013 14:50 16,5 C 71 % 1015,9 hPa 0,0 l/m 2,6 km/h (1 Bft) W-NW 292 11,2 C 16,9 C 1,8 km/h (1 Bft)
27.08.2013 14:55 16,5 C 70 % 1015,9 hPa 0,0 l/m 3,4 km/h (1 Bft) NW 315 11,0 C 16,9 C 0,0 km/h (0 Bft)
27.08.2013 15:00 16,7 C 70 % 1016,1 hPa 0,0 l/m 3,2 km/h (1 Bft) W-NW 292 11,2 C 17,3 C 2,4 km/h (1 Bft)
27.08.2013 15:05 17,1 C 70 % 1016,1 hPa 0,0 l/m 3,5 km/h (1 Bft) W 270 11,6 C 17,7 C 9,2 km/h (2 Bft)
27.08.2013 15:10 17,3 C 69 % 1016,1 hPa 0,0 l/m 4,3 km/h (1 Bft) W-NW 292 11,6 C 17,7 C 4,7 km/h (1 Bft)
27.08.2013 15:15 17,3 C 70 % 1016,1 hPa 0,0 l/m 4,7 km/h (1 Bft) W-SW 247 11,8 C 17,7 C 4,3 km/h (1 Bft)
27.08.2013 15:20 17,1 C 69 % 1016,4 hPa 0,0 l/m 4,8 km/h (1 Bft) W-SW 247 11,4 C 17,7 C 7,6 km/h (2 Bft)
27.08.2013 15:25 16,7 C 70 % 1016,4 hPa 0,0 l/m 4,8 km/h (1 Bft) S-SW 202 11,2 C 17,4 C 6,3 km/h (2 Bft)
27.08.2013 15:30 16,5 C 70 % 1016,4 hPa 0,0 l/m 5,0 km/h (1 Bft) N 360 11,0 C 17,2 C 8,7 km/h (2 Bft)
27.08.2013 15:35 16,2 C 72 % 1016,4 hPa 0,0 l/m 4,7 km/h (1 Bft) W-SW 247 11,1 C 16,8 C 3,5 km/h (1 Bft)
27.08.2013 15:40 16,2 C 72 % 1015,9 hPa 0,0 l/m 4,2 km/h (1 Bft) W 270 11,1 C 16,7 C 4,8 km/h (1 Bft)
27.08.2013 15:45 16,2 C 72 % 1015,9 hPa 0,0 l/m 3,4 km/h (1 Bft) W-NW 292 11,1 C 16,6 C 3,7 km/h (1 Bft)
27.08.2013 15:50 16,1 C 71 % 1015,9 hPa 0,0 l/m 3,4 km/h (1 Bft) W 270 10,8 C 16,6 C 6,1 km/h (2 Bft)
27.08.2013 15:55 16,0 C 72 % 1015,9 hPa 0,0 l/m 3,5 km/h (1 Bft) W-NW 292 11,0 C 16,7 C 3,9 km/h (1 Bft)
27.08.2013 16:00 16,0 C 72 % 1015,9 hPa 0,0 l/m 3,7 km/h (1 Bft) W-NW 292 11,0 C 16,6 C 3,1 km/h (1 Bft)
27.08.2013 16:05 16,2 C 72 % 1015,9 hPa 0,0 l/m 3,2 km/h (1 Bft) N-NW 337 11,1 C 16,7 C 3,7 km/h (1 Bft)
27.08.2013 16:10 16,2 C 72 % 1015,9 hPa 0,0 l/m 2,9 km/h (1 Bft) W 270 11,1 C 16,8 C 3,1 km/h (1 Bft)
27.08.2013 16:15 16,1 C 73 % 1015,9 hPa 0,0 l/m 3,1 km/h (1 Bft) W-NW 292 11,3 C 16,6 C 3,9 km/h (1 Bft)
27.08.2013 16:20 15,8 C 75 % 1015,9 hPa 0,0 l/m 2,7 km/h (1 Bft) W-NW 292 11,4 C 16,6 C 4,0 km/h (1 Bft)
27.08.2013 16:25 15,7 C 75 % 1015,9 hPa 0,0 l/m 2,4 km/h (1 Bft) W 270 11,3 C 16,5 C 3,2 km/h (1 Bft)
27.08.2013 16:30 15,6 C 74 % 1015,9 hPa 0,0 l/m 2,7 km/h (1 Bft) W-NW 292 11,0 C 16,3 C 2,6 km/h (1 Bft)
27.08.2013 16:35 15,3 C 75 % 1015,9 hPa 0,0 l/m 2,7 km/h (1 Bft) W-SW 247 10,9 C 16,1 C 3,1 km/h (1 Bft)
27.08.2013 16:40 15,4 C 75 % 1015,6 hPa 0,0 l/m 2,3 km/h (1 Bft) W 270 11,0 C 16,0 C 0,0 km/h (0 Bft)
27.08.2013 16:45 15,4 C 75 % 1015,6 hPa 0,0 l/m 1,6 km/h (1 Bft) N-NW 337 11,0 C 15,9 C 0,0 km/h (0 Bft)
27.08.2013 16:50 15,4 C 76 % 1015,6 hPa 0,0 l/m 0,8 km/h (0 Bft) W-NW 292 11,2 C 15,9 C 0,0 km/h (0 Bft)
27.08.2013 16:55 15,4 C 76 % 1015,6 hPa 0,0 l/m 1,3 km/h (1 Bft) W 270 11,2 C 15,7 C 2,3 km/h (1 Bft)
27.08.2013 17:00 15,2 C 76 % 1015,6 hPa 0,0 l/m 1,9 km/h (1 Bft) O 90 11,0 C 15,6 C 2,9 km/h (1 Bft)
27.08.2013 17:05 15,1 C 77 % 1015,6 hPa 0,0 l/m 2,3 km/h (1 Bft) W 270 11,1 C 15,5 C 2,9 km/h (1 Bft)
27.08.2013 17:10 15,1 C 77 % 1015,6 hPa 0,0 l/m 2,4 km/h (1 Bft) W-NW 292 11,1 C 15,4 C 1,9 km/h (1 Bft)
27.08.2013 17:15 15,1 C 77 % 1015,6 hPa 0,0 l/m 1,8 km/h (1 Bft) W-SW 247 11,1 C 15,4 C 0,0 km/h (0 Bft)
27.08.2013 17:20 14,9 C 77 % 1015,5 hPa 0,0 l/m 1,8 km/h (1 Bft) N 360 10,9 C 15,3 C 0,0 km/h (0 Bft)
27.08.2013 17:25 14,8 C 77 % 1015,5 hPa 0,0 l/m 1,6 km/h (1 Bft) W-NW 292 10,8 C 15,2 C 1,9 km/h (1 Bft)
27.08.2013 17:30 14,8 C 78 % 1015,5 hPa 0,0 l/m 0,8 km/h (0 Bft) W-NW 292 11,0 C 15,2 C 0,0 km/h (0 Bft)
27.08.2013 17:35 14,8 C 78 % 1015,5 hPa 0,0 l/m 0,6 km/h (0 Bft) W-NW 292 11,0 C 15,1 C 2,1 km/h (1 Bft)
27.08.2013 17:40 14,7 C 78 % 1015,5 hPa 0,0 l/m 0,6 km/h (0 Bft) W 270 10,9 C 15,0 C 0,0 km/h (0 Bft)
27.08.2013 17:45 14,5 C 79 % 1015,5 hPa 0,0 l/m 0,3 km/h (0 Bft) O-NO 67 10,9 C 14,9 C 0,0 km/h (0 Bft)
27.08.2013 17:50 14,4 C 79 % 1015,5 hPa 0,0 l/m 0,5 km/h (0 Bft) W 270 10,8 C 14,9 C 0,0 km/h (0 Bft)
27.08.2013 17:55 14,5 C 79 % 1015,5 hPa 0,0 l/m 0,5 km/h (0 Bft) O 90 10,9 C 14,7 C 0,0 km/h (0 Bft)
27.08.2013 18:00 14,4 C 79 % 1015,6 hPa 0,0 l/m 0,0 km/h (0 Bft) O 90 10,8 C 14,7 C 0,0 km/h (0 Bft)
27.08.2013 18:05 14,3 C 80 % 1015,6 hPa 0,0 l/m 0,0 km/h (0 Bft) NO 45 10,9 C 14,7 C 0,0 km/h (0 Bft)
27.08.2013 18:10 14,2 C 80 % 1015,6 hPa 0,0 l/m 0,0 km/h (0 Bft) NO 45 10,8 C 14,6 C 0,0 km/h (0 Bft)
27.08.2013 18:15 14,1 C 80 % 1015,6 hPa 0,0 l/m 0,0 km/h (0 Bft) W-SW 247 10,7 C 14,5 C 0,0 km/h (0 Bft)
27.08.2013 18:20 14,1 C 81 % 1015,4 hPa 0,0 l/m 0,0 km/h (0 Bft) O-NO 67 10,9 C 14,4 C 0,0 km/h (0 Bft)
27.08.2013 18:25 13,9 C 82 % 1015,4 hPa 0,0 l/m 0,3 km/h (0 Bft) NO 45 10,9 C 14,3 C 1,6 km/h (1 Bft)
27.08.2013 18:30 13,9 C 82 % 1015,4 hPa 0,0 l/m 0,5 km/h (0 Bft) N-NO 22 10,9 C 14,1 C 0,0 km/h (0 Bft)
27.08.2013 18:35 13,8 C 83 % 1015,4 hPa 0,0 l/m 0,8 km/h (0 Bft) N-NO 22 11,0 C 13,9 C 1,9 km/h (1 Bft)
27.08.2013 18:40 13,8 C 83 % 1015,4 hPa 0,0 l/m 0,8 km/h (0 Bft) NO 45 11,0 C 13,9 C 0,0 km/h (0 Bft)
27.08.2013 18:45 13,6 C 84 % 1015,4 hPa 0,0 l/m 0,6 km/h (0 Bft) NO 45 10,9 C 13,7 C 2,3 km/h (1 Bft)
27.08.2013 18:50 13,4 C 85 % 1015,4 hPa 0,0 l/m 0,6 km/h (0 Bft) NO 45 10,9 C 13,5 C 0,0 km/h (0 Bft)
27.08.2013 18:55 13,2 C 86 % 1015,4 hPa 0,0 l/m 0,6 km/h (0 Bft) N-NW 337 10,9 C 13,3 C 0,0 km/h (0 Bft)
27.08.2013 19:00 13,1 C 87 % 1015,4 hPa 0,0 l/m 0,6 km/h (0 Bft) N-NO 22 11,0 C 13,2 C 1,9 km/h (1 Bft)
27.08.2013 19:05 12,9 C 89 % 1015,4 hPa 0,0 l/m 1,4 km/h (1 Bft) N-NW 337 11,1 C 13,1 C 3,2 km/h (1 Bft)
27.08.2013 19:10 12,8 C 91 % 1015,4 hPa 0,0 l/m 1,3 km/h (1 Bft) SW 225 11,4 C 13,0 C 0,0 km/h (0 Bft)
27.08.2013 19:15 12,7 C 92 % 1015,4 hPa 0,7 l/m 0,2 km/h (0 Bft) O-SO 112 11,4 C 12,8 C 0,0 km/h (0 Bft)
27.08.2013 19:20 12,7 C 92 % 1015,4 hPa 0,0 l/m 0,0 km/h (0 Bft) O-NO 67 11,4 C 12,8 C 0,0 km/h (0 Bft)
27.08.2013 19:25 12,6 C 92 % 1015,4 hPa 0,0 l/m 0,2 km/h (0 Bft) NO 45 11,3 C 12,8 C 0,0 km/h (0 Bft)
27.08.2013 19:30 12,6 C 93 % 1015,4 hPa 0,7 l/m 0,2 km/h (0 Bft) O 90 11,5 C 12,7 C 0,0 km/h (0 Bft)
27.08.2013 19:35 12,5 C 93 % 1015,4 hPa 0,0 l/m 0,0 km/h (0 Bft) NO 45 11,4 C 12,6 C 0,0 km/h (0 Bft)
27.08.2013 19:40 12,5 C 93 % 1015,7 hPa 0,7 l/m 0,0 km/h (0 Bft) O-NO 67 11,4 C 12,6 C 0,0 km/h (0 Bft)
27.08.2013 19:45 12,5 C 93 % 1015,7 hPa 0,0 l/m 0,0 km/h (0 Bft) NO 45 11,4 C 12,5 C 0,0 km/h (0 Bft)
27.08.2013 19:50 12,5 C 93 % 1015,7 hPa 0,7 l/m 0,2 km/h (0 Bft) N-NW 337 11,4 C 12,5 C 0,0 km/h (0 Bft)
27.08.2013 19:55 12,5 C 94 % 1015,7 hPa 0,0 l/m 0,3 km/h (0 Bft) N 360 11,6 C 12,5 C 1,6 km/h (1 Bft)
27.08.2013 20:00 12,4 C 94 % 1015,5 hPa 0,0 l/m 0,5 km/h (0 Bft) S-SW 202 11,5 C 12,5 C 3,1 km/h (1 Bft)
27.08.2013 20:05 12,3 C 94 % 1015,5 hPa 0,7 l/m 0,8 km/h (0 Bft) O-NO 67 11,4 C 12,4 C 2,1 km/h (1 Bft)
27.08.2013 20:10 12,2 C 94 % 1015,5 hPa 0,0 l/m 0,8 km/h (0 Bft) O-NO 67 11,3 C 12,3 C 0,0 km/h (0 Bft)
27.08.2013 20:15 12,2 C 94 % 1015,5 hPa 0,7 l/m 1,0 km/h (0 Bft) O 90 11,3 C 12,3 C 1,9 km/h (1 Bft)
27.08.2013 20:20 12,2 C 94 % 1015,7 hPa 0,0 l/m 0,8 km/h (0 Bft) O 90 11,3 C 12,3 C 0,0 km/h (0 Bft)
27.08.2013 20:25 12,2 C 94 % 1015,7 hPa 0,0 l/m 0,3 km/h (0 Bft) NO 45 11,3 C 12,2 C 0,0 km/h (0 Bft)
27.08.2013 20:30 12,2 C 94 % 1015,7 hPa 0,0 l/m 0,2 km/h (0 Bft) NO 45 11,3 C 12,2 C 0,0 km/h (0 Bft)
27.08.2013 20:35 12,2 C 94 % 1015,7 hPa 0,0 l/m 0,0 km/h (0 Bft) O 90 11,3 C 12,2 C 0,0 km/h (0 Bft)
27.08.2013 20:40 12,2 C 94 % 1015,8 hPa 0,0 l/m 0,0 km/h (0 Bft) SO 135 11,3 C 12,2 C 0,0 km/h (0 Bft)
27.08.2013 20:45 12,2 C 94 % 1015,8 hPa 0,0 l/m 0,2 km/h (0 Bft) O-SO 112 11,3 C 12,3 C 0,0 km/h (0 Bft)
27.08.2013 20:50 12,2 C 94 % 1015,8 hPa 0,0 l/m 0,2 km/h (0 Bft) W-NW 292 11,3 C 12,3 C 0,0 km/h (0 Bft)
27.08.2013 20:55 12,2 C 94 % 1015,8 hPa 0,0 l/m 0,0 km/h (0 Bft) N 360 11,3 C 12,2 C 0,0 km/h (0 Bft)
27.08.2013 21:00 12,2 C 94 % 1015,7 hPa 0,0 l/m 0,0 km/h (0 Bft) N 360 11,3 C 12,2 C 0,0 km/h (0 Bft)
27.08.2013 21:05 12,2 C 94 % 1015,7 hPa 0,0 l/m 0,0 km/h (0 Bft) O-NO 67 11,3 C 12,2 C 0,0 km/h (0 Bft)
27.08.2013 21:10 12,1 C 95 % 1015,7 hPa 0,0 l/m 0,0 km/h (0 Bft) O 90 11,3 C 12,2 C 0,0 km/h (0 Bft)
27.08.2013 21:15 12,1 C 95 % 1015,7 hPa 0,0 l/m 0,0 km/h (0 Bft) W 270 11,3 C 12,2 C 0,0 km/h (0 Bft)
27.08.2013 21:20 12,1 C 95 % 1015,8 hPa 0,0 l/m 0,0 km/h (0 Bft) NO 45 11,3 C 12,1 C 0,0 km/h (0 Bft)
27.08.2013 21:25 12,0 C 95 % 1015,8 hPa 0,7 l/m 0,0 km/h (0 Bft) O 90 11,2 C 12,1 C 0,0 km/h (0 Bft)
27.08.2013 21:30 12,1 C 95 % 1015,8 hPa 0,0 l/m 0,0 km/h (0 Bft) O-NO 67 11,3 C 12,1 C 0,0 km/h (0 Bft)
27.08.2013 21:35 12,0 C 95 % 1015,8 hPa 0,0 l/m 0,0 km/h (0 Bft) O-NO 67 11,2 C 12,1 C 0,0 km/h (0 Bft)
27.08.2013 21:40 12,0 C 95 % 1016,0 hPa 0,0 l/m 0,0 km/h (0 Bft) O 90 11,2 C 12,0 C 0,0 km/h (0 Bft)
27.08.2013 21:45 12,0 C 95 % 1016,0 hPa 0,0 l/m 0,0 km/h (0 Bft) O-NO 67 11,2 C 12,1 C 0,0 km/h (0 Bft)
27.08.2013 21:50 12,0 C 95 % 1016,0 hPa 0,0 l/m 0,0 km/h (0 Bft) O 90 11,2 C 12,1 C 0,0 km/h (0 Bft)
27.08.2013 21:55 12,0 C 95 % 1016,0 hPa 0,0 l/m 0,0 km/h (0 Bft) NO 45 11,2 C 12,1 C 0,0 km/h (0 Bft)
27.08.2013 22:00 12,1 C 95 % 1016,1 hPa 0,0 l/m 0,0 km/h (0 Bft) O 90 11,3 C 12,1 C 0,0 km/h (0 Bft)
27.08.2013 22:05 12,1 C 95 % 1016,1 hPa 0,0 l/m 0,0 km/h (0 Bft) O-SO 112 11,3 C 12,1 C 0,0 km/h (0 Bft)
27.08.2013 22:10 12,1 C 95 % 1016,1 hPa 0,0 l/m 0,0 km/h (0 Bft) O-SO 112 11,3 C 12,1 C 0,0 km/h (0 Bft)
27.08.2013 22:15 12,2 C 95 % 1016,1 hPa 0,0 l/m 0,0 km/h (0 Bft) NO 45 11,4 C 12,1 C 0,0 km/h (0 Bft)
27.08.2013 22:20 12,1 C 95 % 1015,9 hPa 0,0 l/m 0,0 km/h (0 Bft) N-NO 22 11,3 C 12,1 C 0,0 km/h (0 Bft)
27.08.2013 22:25 12,1 C 95 % 1015,9 hPa 0,0 l/m 0,0 km/h (0 Bft) O 90 11,3 C 12,1 C 0,0 km/h (0 Bft)
27.08.2013 22:30 12,1 C 95 % 1015,9 hPa 0,0 l/m 0,0 km/h (0 Bft) NO 45 11,3 C 12,1 C 0,0 km/h (0 Bft)
27.08.2013 22:35 12,1 C 95 % 1015,9 hPa 0,0 l/m 0,0 km/h (0 Bft) O 90 11,3 C 12,1 C 0,0 km/h (0 Bft)
27.08.2013 22:40 12,1 C 95 % 1015,9 hPa 0,0 l/m 0,0 km/h (0 Bft) O 90 11,3 C 12,1 C 0,0 km/h (0 Bft)
27.08.2013 22:45 12,1 C 95 % 1015,9 hPa 0,0 l/m 0,0 km/h (0 Bft) O 90 11,3 C 12,1 C 0,0 km/h (0 Bft)
27.08.2013 22:50 12,0 C 95 % 1015,9 hPa 0,0 l/m 0,0 km/h (0 Bft) O 90 11,2 C 12,1 C 0,0 km/h (0 Bft)
27.08.2013 22:55 12,0 C 95 % 1015,9 hPa 0,0 l/m 0,0 km/h (0 Bft) NO 45 11,2 C 12,1 C 0,0 km/h (0 Bft)
27.08.2013 23:00 11,9 C 95 % 1015,9 hPa 0,0 l/m 0,0 km/h (0 Bft) NO 45 11,1 C 12,0 C 0,0 km/h (0 Bft)
27.08.2013 23:05 11,9 C 95 % 1015,9 hPa 0,0 l/m 0,0 km/h (0 Bft) N-NO 22 11,1 C 11,9 C 0,0 km/h (0 Bft)
27.08.2013 23:10 11,9 C 95 % 1015,9 hPa 0,0 l/m 0,0 km/h (0 Bft) NO 45 11,1 C 11,9 C 0,0 km/h (0 Bft)
27.08.2013 23:15 11,9 C 95 % 1015,9 hPa 0,0 l/m 0,0 km/h (0 Bft) NO 45 11,1 C 11,8 C 0,0 km/h (0 Bft)
27.08.2013 23:20 11,9 C 95 % 1016,2 hPa 0,0 l/m 0,0 km/h (0 Bft) NO 45 11,1 C 11,8 C 0,0 km/h (0 Bft)
27.08.2013 23:25 11,8 C 95 % 1016,2 hPa 0,0 l/m 0,2 km/h (0 Bft) NO 45 11,0 C 11,9 C 0,0 km/h (0 Bft)
27.08.2013 23:30 11,9 C 95 % 1016,2 hPa 0,0 l/m 0,2 km/h (0 Bft) N-NO 22 11,1 C 11,9 C 0,0 km/h (0 Bft)
27.08.2013 23:35 11,9 C 95 % 1016,2 hPa 0,7 l/m 0,0 km/h (0 Bft) O-NO 67 11,1 C 11,9 C 0,0 km/h (0 Bft)
27.08.2013 23:40 11,9 C 95 % 1016,2 hPa 0,0 l/m 0,2 km/h (0 Bft) O 90 11,1 C 11,9 C 0,0 km/h (0 Bft)
27.08.2013 23:45 11,9 C 95 % 1016,2 hPa 0,0 l/m 0,6 km/h (0 Bft) O 90 11,1 C 12,0 C 0,0 km/h (0 Bft)
27.08.2013 23:50 11,9 C 95 % 1016,2 hPa 0,0 l/m 0,5 km/h (0 Bft) O-SO 112 11,1 C 12,0 C 0,0 km/h (0 Bft)
27.08.2013 23:55 11,8 C 95 % 1016,2 hPa 0,7 l/m 0,2 km/h (0 Bft) S 180 11,0 C 11,9 C 0,0 km/h (0 Bft)
_ Min-Zeit 06:15 13:30 07:15 - 23:35 - - 06:15 06:30 23:55
Minimum _ 6,1 C 56 % 1015,2 hPa - 0,0 km/h (0 Bft) - - 5,1 C 6,0 C 0,0 km/h (0 Bft)
_ Max-Zeit 13:30 23:55 14:15 23:55 13:25 - - 09:05 13:35 12:15
Maximum _ 19,6 C 95 % 1016,7 hPa 0,7 l/m 5,1 km/h
NW (1 Bft)
- - 14,0 C 22,1 C 12,6 km/h
N (3 Bft)
Durchschnitt _ 12,3 C 84 % 1015,9 hPa #6,2 l/m 1,3 km/h (1 Bft) W-NW - 9,5 C 12,8 C 1,7 km/h (1 Bft)